This is the latest recevied weather packets stored in our database for station/object N0NB. If no packets are shown the sender has not sent any weather packets the latest 10 day(s).
| Time | Temp. | Humidity | Pressure | Rain* | Wind** | Luminosity | Snow |
|---|---|---|---|---|---|---|---|
| 1788582316 | 22.78° C | 90% | 1011.8 hPa | 0 mm | - | 0 W/m² | - |
| 1788581716 | 22.78° C | 90% | 1011.7 hPa | 0 mm | - | 0 W/m² | - |
| 1788581116 | 22.78° C | 89% | 1011.7 hPa | 0 mm | - | 0 W/m² | - |
| 1788580516 | 23.33° C | 89% | 1011.8 hPa | 0 mm | - | 0 W/m² | - |
| 1788579916 | 23.33° C | 90% | 1011.6 hPa | 0 mm | - | 0 W/m² | - |
| 1788579316 | 23.33° C | 88% | 1011.6 hPa | 0 mm | - | 0 W/m² | - |
| 1788578716 | 23.33° C | 88% | 1011.5 hPa | 0 mm | - | 0 W/m² | - |
| 1788578116 | 23.89° C | 87% | 1011.3 hPa | 0 mm | - | 0 W/m² | - |
| 1788577516 | 23.89° C | 86% | 1011.1 hPa | 0 mm | - | 0 W/m² | - |
| 1788576915 | 23.89° C | 86% | 1011 hPa | 0 mm | - | 0 W/m² | - |
| 1788576315 | 24.44° C | 85% | 1010.8 hPa | 0 mm | - | 0 W/m² | - |
| 1788575715 | 24.44° C | 84% | 1010.7 hPa | 0 mm | - | 0 W/m² | - |
| 1788575115 | 25° C | 83% | 1010.7 hPa | 0 mm | - | 0 W/m² | - |
| 1788574515 | 25.56° C | 82% | 1010.5 hPa | 0 mm | - | 0 W/m² | - |
| 1788573915 | 26.11° C | 81% | 1010.5 hPa | 0 mm | - | 0 W/m² | - |
| 1788573315 | 26.11° C | 80% | 1010.4 hPa | 0 mm | - | 0 W/m² | - |
| 1788572715 | 26.67° C | 78% | 1010.1 hPa | 0 mm | - | 0 W/m² | - |
| 1788572115 | 27.22° C | 76% | 1010.1 hPa | 0 mm | - | 0 W/m² | - |
| 1788571515 | 27.78° C | 73% | 1010.2 hPa | 0 mm | - | 0 W/m² | - |
| 1788570915 | 28.89° C | 72% | 1010.2 hPa | 0 mm | - | 0 W/m² | - |
| 1788570315 | 29.44° C | 70% | 1010.2 hPa | 0 mm | - | 0 W/m² | - |
| 1788569715 | 30° C | 68% | 1010.1 hPa | 0 mm | - | 0 W/m² | - |
| 1788569117 | 31.11° C | 66% | 1010.2 hPa | 0 mm | - | 4 W/m² | - |
| 1788568517 | 31.67° C | 65% | 1010.4 hPa | 0 mm | - | 12 W/m² | - |
| 1788567917 | 32.22° C | 65% | 1010.5 hPa | 0 mm | - | 26 W/m² | - |
* Rain latest hour (hover to see other rain measurements)
** Current wind speed in m/s (hover to see current wind gust speed)